Theta_e
331 334 351 354 354 354 353 352 351 352 351 350 351 353 352 352 352 352 352 350 350 346 344 344 343 342 341 343 344 344 347 347 347 349 349 349 349 349 351 349 349 347 350
331 336 349 353 355 355 354 354 352 351 350 350 349 350 352 353 352 351 349 347 346 343 343 341 342 340 339 339 340 343 343 340 339 341 345 346 347 346 347 348 349 346 349
333 340 347 351 355 355 354 354 352 351 350 349 349 349 351 351 351 349 347 346 345 342 342 340 340 339 336 336 336 337 337 335 338 339 342 337 339 345 345 345 346 344 345
334 342 345 348 353 355 354 353 352 351 350 349 347 348 349 350 349 348 346 344 343 342 340 340 337 335 333 332 332 332 332 336 340 339 336 339 340 344 344 343 343 343 342
334 340 344 347 352 355 354 352 351 351 351 349 348 347 347 348 348 348 345 343 342 340 339 337 334 331 329 328 328 328 330 338 337 334 332 334 336 342 342 341 341 340 341
334 339 343 348 353 354 353 352 351 351 350 350 349 347 347 348 348 346 344 342 339 338 336 334 331 328 325 322 321 326 331 335 330 325 327 331 332 342 342 342 341 341 340
330 335 339 346 351 352 352 352 351 351 351 351 350 350 350 349 346 345 344 340 337 335 333 332 328 325 321 318 319 322 329 329 321 321 322 326 331 339 338 339 340 340 337
330 334 338 338 344 347 350 350 350 350 350 351 350 350 349 346 345 343 342 339 336 333 331 330 326 323 319 316 317 320 324 323 317 316 316 319 332 334 335 336 337 338 337
325 331 334 337 339 339 343 344 346 347 347 347 348 347 346 345 344 342 340 339 335 332 331 330 324 321 317 315 316 319 319 319 310 311 314 314 326 328 329 331 333 333 333
320 327 330 333 341 339 339 336 337 341 343 344 342 340 337 338 338 337 333 336 336 333 330 329 323 320 317 313 313 315 316 314 306 307 309 312 325 324 324 326 328 329 330
314 317 326 330 338 340 342 335 332 335 337 337 337 334 329 333 332 328 328 332 336 334 331 329 323 320 316 310 311 309 305 300 300 302 305 317 320 321 320 321 323 325 326
299 307 315 325 334 337 339 340 339 336 339 339 338 336 333 331 330 328 324 327 331 330 331 328 323 318 305 293 292 299 293 295 297 298 302 317 319 319 320 320 321 322 324
295 297 298 304 324 335 336 337 337 339 335 337 337 335 333 330 327 326 325 325 325 321 318 319 312 306 298 292 292 292 291 291 294 295 299 313 318 321 320 319 320 322 324
294 296 297 297 300 327 335 336 336 336 333 329 332 333 331 328 326 324 322 322 321 318 316 312 308 304 300 296 294 292 291 291 292 294 296 308 313 319 323 321 323 324 322
293 295 296 297 298 313 329 333 333 333 334 333 331 330 329 327 325 323 322 320 319 316 315 312 308 304 300 295 293 292 291 291 291 293 295 304 313 317 322 325 324 323 323
293 294 296 298 301 307 321 326 330 331 331 332 331 329 326 326 324 322 321 317 317 316 314 309 306 303 300 294 293 292 291 291 290 291 295 298 310 315 320 325 324 324 325
292 293 295 298 301 312 317 320 326 329 328 328 328 328 327 326 324 322 319 317 317 315 312 308 306 303 299 294 292 291 291 291 290 291 292 297 301 308 313 321 324 324 326
291 292 294 297 300 311 316 317 320 320 320 321 323 325 325 325 325 322 320 317 317 314 311 308 306 303 300 297 292 290 289 289 290 290 291 294 298 301 306 312 318 321 325
290 291 292 294 296 305 309 310 309 308 309 308 309 312 316 318 320 321 319 318 316 313 309 308 304 302 300 297 295 291 289 288 289 290 289 291 293 299 299 305 310 308 315
289 290 291 293 294 297 302 302 301 300 300 301 299 301 303 306 311 313 313 311 312 310 307 305 303 298 296 295 294 292 289 288 288 288 288 290 291 294 297 298 298 299 307
288 289 290 291 292 294 294 296 296 293 294 295 295 296 296 297 301 304 305 305 307 305 303 301 299 298 297 293 293 293 291 291 288 288 288 288 289 291 293 296 296 295 297
285 287 288 289 290 292 292 292 292 292 291 291 293 293 293 293 294 296 299 300 301 301 301 300 298 296 295 293 292 289 289 289 287 287 287 288 287 288 290 291 292 293 293
283 283 285 286 288 289 291 291 291 290 289 288 288 288 288 288 289 290 291 293 295 297 297 297 297 296 294 294 291 292 289 286 285 286 286 286 286 287 288 289 290 290 290
282 283 284 284 285 286 288 287 286 285 283 284 285 285 285 285 285 286 287 288 289 290 289 292 295 294 293 292 292 291 289 288 287 286 286 287 285 286 286 286 287 288 289
282 281 282 283 283 283 284 284 283 282 282 282 282 283 283 284 284 284 284 284 284 285 286 287 288 289 290 290 291 290 289 288 288 286 286 287 287 286 286 286 287 287 287
281 281 281 281 281 282 282 282 281 281 280 280 280 280 281 282 282 282 283 282 283 283 283 284 284 286 286 288 288 289 289 289 288 287 286 288 286 287 286 286 285 286 287
Wind_Speed
6 6 8 12 11 12 11 9 8 8 9 10 10 11 10 9 8 9 12 12 11 11 10 10 10 10 10 10 11 10 13 14 14 13 14 14 14 13 14 13 11 7 10
7 8 9 12 13 12 11 10 9 9 9 9 9 10 9 11 11 12 12 11 10 9 8 8 9 10 10 10 10 9 11 10 9 10 11 12 11 12 13 13 12 11 12
6 10 10 11 11 12 10 10 9 9 8 8 8 9 9 7 10 11 10 10 9 8 7 7 8 9 10 10 11 9 9 9 9 7 9 5 5 10 12 12 12 12 11
6 7 7 10 11 10 11 10 9 8 8 7 7 7 7 7 8 8 9 9 9 8 7 7 8 9 9 9 9 8 8 9 10 9 4 4 4 10 11 10 11 12 12
6 6 7 10 10 11 12 11 10 9 8 8 8 8 7 7 6 9 10 8 8 7 6 6 6 8 8 9 8 7 7 9 10 7 5 5 4 6 8 9 9 11 11
5 5 7 11 10 12 12 13 12 11 10 10 9 8 8 10 9 10 10 8 7 7 5 5 6 7 8 8 6 6 7 9 9 6 5 6 5 8 7 5 10 11 10
5 4 5 11 10 11 11 11 10 10 10 10 9 9 7 8 10 8 7 4 5 4 4 4 5 6 6 7 5 5 7 8 5 5 5 5 5 7 7 8 9 7 6
6 6 6 8 9 9 11 10 10 10 10 10 9 9 10 9 8 7 6 4 2 2 2 2 4 5 6 6 5 5 6 7 5 5 4 4 5 4 5 6 8 8 8
2 4 4 5 7 9 10 10 11 10 9 9 8 8 9 9 8 7 6 4 2 1 0 1 3 4 5 5 6 6 6 7 5 3 3 2 5 3 3 3 3 3 3
2 2 3 3 6 4 4 11 9 10 10 8 6 6 6 8 9 8 6 5 4 3 2 3 2 3 4 6 6 6 7 7 4 3 3 3 4 2 2 2 2 1 1
5 4 3 3 7 9 6 3 6 8 7 7 6 5 4 3 5 5 3 4 3 4 4 4 2 1 6 7 8 6 6 2 3 2 2 6 5 3 2 3 3 2 2
10 8 6 5 5 5 4 4 5 4 5 5 5 6 4 5 5 5 5 4 2 3 1 3 2 7 6 3 3 6 3 3 3 2 2 6 6 5 3 3 3 3 3
6 6 8 8 6 8 5 3 2 3 1 3 5 4 3 2 3 3 2 1 2 2 2 3 4 3 3 2 3 3 3 3 2 2 4 8 7 7 6 5 4 3 1
9 8 9 8 7 8 6 4 3 3 2 1 2 5 3 2 3 3 3 3 3 2 2 1 1 1 1 2 3 3 3 2 2 2 4 8 8 8 8 6 4 3 4
10 11 12 9 7 5 9 3 3 2 2 3 2 3 3 3 3 4 4 3 3 3 3 4 3 2 1 2 2 2 3 4 4 2 3 9 9 9 9 9 6 6 5
10 11 11 10 9 5 3 3 3 1 3 1 2 2 3 3 3 3 4 5 4 4 3 4 4 3 2 1 3 3 3 3 3 4 3 4 10 11 11 12 8 7 6
8 10 12 11 10 6 5 5 3 2 3 2 3 4 3 3 5 4 3 3 4 4 4 3 2 2 2 0 3 3 4 5 4 5 4 3 5 9 10 10 11 9 9
9 11 10 10 11 10 8 7 6 8 8 7 7 6 6 4 3 2 3 3 3 3 3 3 3 2 2 2 2 3 3 3 5 6 5 4 4 4 6 9 10 10 10
9 10 12 12 12 11 13 11 12 13 11 9 9 10 13 13 10 5 4 5 3 1 2 2 1 0 2 1 2 3 3 4 4 3 5 5 6 5 4 8 9 10 10
7 8 9 10 12 9 8 10 10 11 10 10 11 11 15 12 13 9 8 8 6 4 4 3 3 2 2 3 2 4 4 4 4 5 6 4 5 5 5 5 5 5 10
9 11 11 11 9 7 5 4 7 8 7 9 10 13 14 13 14 13 9 9 8 7 5 5 2 3 3 3 4 2 3 4 6 5 3 4 5 5 5 4 4 3 5
9 10 12 12 11 9 4 3 4 4 5 6 7 12 12 12 13 11 10 9 9 7 8 7 5 3 2 1 1 2 4 5 3 3 3 4 6 3 5 5 5 5 5
10 10 10 9 10 9 8 4 4 5 4 5 8 8 12 13 13 12 11 10 10 9 7 6 4 4 3 2 1 1 3 3 3 2 2 2 4 4 5 5 6 6 6
8 8 9 10 11 10 9 12 15 10 9 4 5 5 8 12 12 12 12 11 10 7 9 8 8 4 3 2 2 1 2 0 3 5 2 3 2 5 5 4 5 6 6
7 8 7 8 12 11 11 10 9 12 7 3 4 8 9 9 11 11 11 10 10 8 9 10 9 8 4 4 3 3 2 2 4 4 8 3 3 4 4 5 5 5 6
4 4 5 8 8 8 9 10 11 11 7 8 7 7 6 5 7 10 9 9 9 9 9 7 7 8 7 5 3 3 3 3 3 4 5 8 7 4 3 4 5 5 5
Wind_Direction
240 190 188 162 166 153 154 148 128 109 104 100 100 99 112 111 118 108 91 83 74 64 63 61 58 55 57 60 67 71 58 58 54 57 62 69 68 63 57 53 59 52 73
155 169 182 169 173 164 160 150 141 132 125 118 109 103 107 114 112 100 87 77 71 64 55 51 51 50 48 46 48 47 52 51 47 48 56 58 67 65 61 52 55 52 56
147 162 171 175 172 165 158 147 146 142 136 125 120 117 121 116 104 93 91 84 76 73 64 61 56 49 45 42 40 37 40 35 40 50 72 59 60 69 65 57 55 57 50
154 160 166 176 171 171 156 152 149 147 145 139 132 130 129 119 106 108 103 90 80 72 64 61 56 52 43 42 41 36 33 42 50 66 67 54 42 73 71 65 63 59 47
156 162 172 177 176 159 158 158 158 158 161 161 158 152 154 146 135 128 111 96 83 76 69 67 52 46 36 33 35 32 47 57 61 57 52 52 32 72 76 78 75 70 55
161 162 174 182 179 166 165 167 168 169 173 174 172 171 172 173 153 128 114 118 107 86 57 53 45 38 32 27 31 45 60 72 64 49 47 29 29 62 60 108 114 97 63
168 163 173 185 188 176 171 175 175 178 183 182 182 187 182 148 130 126 141 144 123 92 49 41 41 39 30 29 39 45 78 80 80 64 49 37 28 49 40 30 61 69 79
178 179 179 191 190 188 175 183 183 189 196 189 195 208 168 156 148 154 163 168 135 65 16 0 41 37 32 32 42 66 88 93 74 70 45 17 11 41 39 32 41 40 57
214 189 194 194 202 191 182 182 186 192 203 203 205 198 182 164 162 165 163 177 208 144 192 80 38 30 26 33 40 62 84 87 76 60 36 0 336 22 27 32 43 49 56
6 312 267 239 209 220 212 209 205 193 192 207 215 212 190 170 169 176 180 181 171 174 179 124 66 27 19 21 29 51 73 72 68 45 18 329 348 20 8 351 346 340 339
355 308 293 251 228 224 212 217 204 197 186 199 201 212 186 170 175 178 172 187 173 154 184 150 126 59 50 19 23 31 46 38 48 20 349 325 336 322 332 328 311 286 268
339 334 322 279 235 227 226 210 195 211 210 197 195 193 167 179 176 176 175 186 176 147 169 166 150 90 60 28 357 9 18 10 13 349 325 324 327 301 295 317 299 285 265
322 350 346 336 285 230 207 180 176 204 221 198 187 184 184 169 150 144 127 157 126 78 28 59 63 70 64 49 13 359 354 2 340 327 320 328 322 313 289 285 276 267 298
345 338 334 333 318 259 229 194 172 168 171 245 212 153 149 153 151 159 154 165 159 138 141 110 97 116 61 11 349 337 334 336 321 311 313 326 319 310 298 280 265 261 268
355 340 336 326 322 280 232 214 155 160 170 191 186 166 141 159 176 163 174 163 178 163 174 175 184 203 268 314 338 329 322 323 318 316 317 318 320 310 297 279 263 263 257
343 344 333 334 327 290 183 157 143 148 248 156 176 203 179 176 177 196 175 188 175 189 201 173 174 190 234 303 305 308 297 300 302 303 303 314 319 323 315 289 267 257 251
337 330 351 346 345 19 100 108 97 71 58 14 338 327 285 209 208 192 163 183 203 177 172 161 160 153 178 211 288 313 322 313 304 298 293 284 299 309 316 321 292 265 257
349 357 351 359 9 31 59 70 62 50 51 39 29 16 360 329 299 221 217 217 196 177 168 174 152 200 218 203 286 298 293 303 306 303 304 301 297 297 306 313 332 328 288
353 1 9 10 17 43 64 64 62 56 52 43 37 31 23 26 16 5 0 356 340 296 137 141 61 0 242 241 248 257 272 278 268 273 279 287 288 288 297 301 317 327 325
4 20 25 27 24 22 57 64 64 61 53 48 42 36 30 28 31 34 33 30 22 22 22 20 37 55 357 333 323 288 264 253 257 252 246 247 256 274 286 295 308 311 316
23 32 31 42 26 45 42 58 56 56 39 46 46 40 38 32 30 34 36 31 20 41 40 44 50 14 2 3 314 330 296 262 262 267 298 279 283 286 281 283 291 302 307
10 18 25 29 28 40 59 62 86 95 61 61 48 43 37 40 37 38 35 35 32 36 35 32 29 6 10 40 21 250 341 331 348 346 297 257 258 271 285 283 284 282 285
17 10 24 25 32 39 40 79 90 81 66 42 32 39 32 33 32 36 42 40 30 28 32 34 30 26 354 348 18 221 319 289 312 315 333 313 287 267 260 248 257 260 262
11 9 21 29 33 32 48 69 70 77 77 23 41 39 45 41 39 37 38 37 41 38 28 13 12 12 19 347 336 304 283 308 294 313 312 308 315 279 281 272 258 254 246
17 17 14 36 47 35 45 65 81 85 87 84 57 52 37 36 37 31 33 38 41 37 29 23 17 22 13 352 3 338 319 262 242 254 300 317 309 253 250 251 255 256 251
76 57 46 61 51 46 58 62 76 85 80 72 52 51 33 25 33 29 26 29 32 27 24 18 22 29 15 12 4 357 322 314 328 294 285 296 273 264 271 266 251 250 240